Airfield :
LOGIN :

Register | Disclaimer

   EN    FR    IT 

 










Legend :    VFR   Marginal VFR   IFR   Intensive IFR   Very Intensive IFR
Visi :
Ceiling :
>= 8 km
>= 3000ft
5 to 8 km
1000 to 3000 ft
1500m to 5 km
500 to 1000 ft
800 to 1500m
200 to 500 ft
< 800m
< 200 ft
Symbols :   Thunderstorms  Fog  Heavy snow  Heavy precipitations  Wind > 20 kt
SIGMETs :     Misc.  Thunderstorms  Icing  Turbulence  Mountain Waves  Volcanic Ashes






- Airport Elevation : 405 ft
- IATA code : ODH


EGVO - RAF Odiham

CURRENT METAR :
  • 082150Z 23014KT 9999 OVC040 05/02 Q0998 NOSIG RMK BLU BLU

EXPIRED METARs :
  • 082050Z 24017G30KT CAVOK 05/02 Q0998 NOSIG RMK BLU BLU
  • 081950Z 25020KT 9999 -RA FEW023 BKN050 BKN140 06/01 Q0997 TEMPO SCT020 RMK BLU TEMPO WHT

TAF TAF EGVO
Valid from the 08 at 21:00 until the 09 at 09:00 UTC


081929Z 0821/0909 25016G26KT 9999 SCT025
PROB40
TEMPO 0821/0905 SCT020
PROB30
TEMPO 0821/0904 7000 RA SCT012
BECMG 0902/0904 24014KT



MET'MAP, your aeronautical weather chart ! - Copyright ORBIFLY December 2007 - Disclaimer

ORBIFLY MET'MAP TEAM :

Programming & Development : Alexandra Zaïnal
Concept & original design : Baudouin d'Aumeries
Assistance for programming : Marc-Olivier Méhu
Technical & hardware support : Manuel Goepfert

Contact : metmap@orbifly.com




SOURCES & CREDITS :

   NOAA